Regional Weather Roundup
Issued by NWS

Home | Current Version | Previous Version | Graphics & Text | Print | Product List | Glossary On
Versions: 1 2 3 4 5 6 7 8 9 10 11 12 13 14 15 16 17 18 19 20 21 22 23 24 25 26 27 28 29 30 31 32 33 34 35 36 37 38 39 40 41 42 43 44 45 46 47 48 49 50
000
ASUS43 KLMK 010910
RWRKY
KENTUCKY REGIONAL WEATHER ROUNDUP
NATIONAL WEATHER SERVICE LOUISVILLE KY
500 AM EDT WED JUL 01 2015

NOTE "FAIR" INDICATES FEW OR NO CLOUDS BELOW 12,000 FEET
WITH NO SIGNIFICANT WEATHER AND/OR OBSTRUCTIONS TO VISIBILITY.

KYZ001>023-026-027-061>063-070>075-011000-
WESTERN AND SOUTH CENTRAL KENTUCKY

CITY           SKY/WX    TMP DP  RH WIND       PRES   REMARKS
PADUCAH        MOCLDY    73  69  87 SW3       29.88F
HENDERSON      CLOUDY    70  64  83 CALM      29.87F
OWENSBORO      MOCLDY    70  68  93 CALM      29.89F
HOPKINSVILLE   MOCLDY    72  69  91 S6        29.91F
BOWLING GREEN  PTCLDY    72  68  87 SW5       29.92F
GLASGOW        PTCLDY    69  69 100 CALM      29.92F
$$

KYZ024-025-028>034-038-045-046-053-011000-
NORTH CENTRAL KENTUCKY

CITY           SKY/WX    TMP DP  RH WIND       PRES   REMARKS
LOUISVILLE/SDF CLEAR     70  63  78 CALM      29.89S
LOUISVILLE/LOU CLEAR     67  63  87 CALM      29.89F
FORT KNOX      CLEAR     65  64  95 CALM      29.89S
$$

KYZ035>037-039>044-047>052-055>060-089>105-011000-
NORTHEAST KENTUCKY

CITY           SKY/WX    TMP DP  RH WIND       PRES   REMARKS
LEXINGTON      PTCLDY    67  65  93 SW7       29.91R
COVINGTON      PTCLDY    60  60 100 CALM      29.89S FOG
FRANKFORT      CLEAR     64  62  93 SW9       29.89F FOG
$$

KYZ054-064>069-076>088-106>120-011000-
SOUTHEAST KENTUCKY

CITY           SKY/WX    TMP DP  RH WIND       PRES   REMARKS
JACKSON        CLEAR     62  59  90 VRB3      29.94S
LONDON         PTCLDY    66  62  87 CALM      29.95F FOG
SOMERSET       CLEAR     68  68 100 SW3       29.95F
MIDDLESBORO    FOG       65  65 100 CALM      29.97F VSB 1/2
MONTICELLO     MOSUNNY   70  70 100 SW6       29.97F
$$




USA.gov is the U.S. government's official web portal to all federal, state and local government web resources and services.